Regional Weather Roundup
Issued by NWS

Home | Current Version | Previous Version | Text Only | Print | Product List | Glossary On
Versions: 1 2 3 4 5 6 7 8 9 10 11 12 13 14 15 16 17 18 19 20 21 22 23 24 25 26 27 28 29 30 31 32 33 34 35 36 37 38 39 40 41 42 43 44 45 46 47 48 49 50
000
ASUS43 KTOP 042008
RWRKS

WEATHER ROUNDUP FOR KANSAS
NATIONAL WEATHER SERVICE GOODLAND KS
300 PM CDT FRI SEP 04 2015

NOTE:  "FAIR" INDICATES FEW OR NO CLOUDS BELOW 12,000 FEET WITH NO
SIGNIFICANT WEATHER AND/OR OBSTRUCTIONS TO VISIBILITY.

KSZ001>006-013>018-027>032-041>047-042100-
NORTHWEST KANSAS

CITY           SKY/WX    TMP DP  RH WIND       PRES   REMARKS
GOODLAND       SUNNY     92  47  21 VRB3      29.90F
HAYS           SUNNY     99  61  28 S22G31    29.83F HX  99
HILL CITY      SUNNY     99  57  24 SW16      29.83F HX  98
RUSSELL        SUNNY     97  61  30 S26G35    29.84F HX  97
$$

KSZ061>065-074>080-084>089-042100-
SOUTHWEST KANSAS

CITY           SKY/WX    TMP DP  RH WIND       PRES   REMARKS
DODGE CITY     MOSUNNY   93  55  27 S23G30    29.90F
ELKHART          N/A     95  58  29 S14         N/A
GARDEN CITY    MOSUNNY   94  55  26 S20       29.90F
GREAT BEND     SUNNY     99  63  30 S22G32    29.85F HX 100
LIBERAL        MOSUNNY   90  61  37 S15       29.93S
PRATT          SUNNY     93  55  27 MISG      29.91F
$$

KSZ066>073-081>083-090>101-042100-
SOUTHEAST KANSAS

CITY           SKY/WX    TMP DP  RH WIND       PRES   REMARKS
CHANUTE        MOSUNNY   89  71  55 S13       29.97F HX  95
COFFEYVILLE    MOSUNNY   87  71  58 S10       29.96F
HUTCHINSON     SUNNY     95  65  37 S20G25    29.91F HX  97
MEDICINE LODGE   N/A     97  65  34 S12G22    29.89F HX  99
NEWTON         SUNNY     93  64  38 S20G30    29.96F HX  95
PARSONS        MOSUNNY   88  71  57 S8G17     29.98F
WICHITA INTL   MOSUNNY   93  65  39 S18G26    29.91F HX  95
WICHITA JABRA  SUNNY     89  67  47 S13G24    29.93F
WICHITA MCCONL SUNNY     92  65  41 SE15      29.93F
WINFIELD       SUNNY     93  66  40 S14G23    29.94F HX  96
$$

KSZ007>012-019>026-033>040-048>060-102>105-042100-
NORTHEAST KANSAS

CITY           SKY/WX    TMP DP  RH WIND       PRES   REMARKS
CONCORDIA      SUNNY     93  64  38 S23G33    29.86F
EMPORIA        SUNNY     90  67  46 S18G25    29.94F
LAWRENCE       SUNNY     92  66  42 S18G25    29.94F
MANHATTAN      SUNNY     95  64  35 S20G25    29.89F HX  97
MARYSVILLE     SUNNY     91  64  40 S20G25    29.89F
OLATHE IND     SUNNY     89  68  49 S12G22    29.97F
OLATHE EXE     SUNNY     88  69  53 S14       29.96F
SALINA         SUNNY     95  65  37 S21G31    29.87F HX  97
TOPEKA BILLARD SUNNY     91  67  44 S20G25    29.93F
TOPEKA FORBES  SUNNY     92  67  43 S12       29.94F HX  95
$$



USA.gov is the U.S. government's official web portal to all federal, state and local government web resources and services.